Location: Napier
(39.4830°S, 176.9170°E)
Time: 01:57:41
(UTC+12:00)

Nadezhda 3 Rocket - Pass Details

Date: 15 August 2020
Orbit: 956 x 1000 km, 82.9° (Epoch: 19 September)

Event Time Altitude Azimuth Distance (km) Brightness Sun altitude
Rises 18:19:02 0° 18° (NNE) 3,629 6.9 -9.2°
Reaches altitude 10° 18:21:40 10° 25° (NNE) 2,695 6.2 -9.7°
Maximum altitude 18:27:19 39° 91° (E) 1,420 4.4 -10.8°
Drops below altitude 10° 18:33:05 10° 158° (SSE) 2,749 6.1 -11.9°
Sets 18:35:46 0° 164° (SSE) 3,711 6.8 -12.4°
